Regional Weather Roundup
Issued by NWS Charleston, SC

Current Version | Previous Version | Graphics & Text | Print | Product List | Glossary On
Versions: 1 2 3 4 5 6 7 8 9 10 11 12 13 14 15 16 17 18 19 20 21 22 23 24 25 26 27 28 29 30 31 32 33 34 35 36 37 38 39 40 41 42 43 44 45 46 47 48 49 50
000 ASUS42 KCHS 311811 RWRCHS REGIONAL WEATHER ROUNDUP NATIONAL WEATHER SERVICE CHARLESTON SC 100 PM EST SAT JAN 31 2015 NOTE: "FAIR" INDICATES FEW OR NO CLOUDS BELOW 12,000 FEET WITH NO SIGNIFICANT WEATHER AND/OR OBSTRUCTIONS TO VISIBILITY. NOT ALL STATIONS ARE QUALITY CONTROLLED BY THE NATIONAL WEATHER SERVICE. USE DATA WITH CAUTION...ESPECIALLY DEWPOINT OBSERVATIONS. SCZ027-030-031-034>040-042>050-311900- ...SOUTHEAST SOUTH CAROLINA... CITY SKY/WX TMP DP RH WIND PRES REMARKS N CHARLESTON MOSUNNY 52 7 16 N7 30.38F 6HR MIN TEMP: 30; 6HR MAX TEMP: 52; WATERFRONT PRK N/A 48 N/A N/A SE7 N/A MOUNT PLEASANT FAIR 52 9 17 CALM 30.38F PINOPOLIS N/A 45 19 36 VRB3 30.30F MONCKS CORNER FAIR 48 14 25 N5 30.39F SUMMERVILLE FAIR 50 14 23 NW6 30.38F BEAUFORT MCAS SUNNY 50 16 25 VRB3 30.40F 6HR MIN TEMP: 30; 6HR MAX TEMP: 51; BEAUFORT ARPT FAIR 50 21 32 NE5 30.39F HILTON HEAD IS MOSUNNY N/A N/A N/A NE8 30.41S WALTERBORO CLEAR 52 -2 11 CALM 30.38F ALLENDALE FAIR 50 14 23 CALM 30.38F ...SOUTHERN MIDLANDS AND PEE DEE... CITY SKY/WX TMP DP RH WIND PRES REMARKS GEORGETOWN NOT AVBL KINGSTREE NOT AVBL ORANGEBURG SUNNY 49 12 22 VRB3 30.37F 6HR MIN TEMP: 26; 6HR MAX TEMP: 49; 6HR PCP: TRACE; BARNWELL FAIR 54 18 24 CALM 30.38F AIKEN FAIR 52 18 25 SW5 30.39F MANNING FAIR 50 9 18 NW3 30.38F COLUMBIA PTSUNNY 50 14 23 VRB3 30.37F 6HR MIN TEMP: 23; 6HR MAX TEMP: 50; SUMTER SUNNY 49 10 20 E2 30.35F 6HR MIN TEMP: 26; 6HR MAX TEMP: 50; FLORENCE SUNNY 48 8 19 VRB5 30.37F 6HR MIN TEMP: 23; 6HR MAX TEMP: 48; MYRTLE BEACH SUNNY 48 7 18 N10 30.39F N MYRTLE BEACH SUNNY 48 7 18 N12 30.36F 6HR MIN TEMP: 28; 6HR MAX TEMP: 48; $$ GAZ063-065-086>088-099>101-113>116-118-119-134>141-150-311900- ...SOUTHEAST GEORGIA... CITY SKY/WX TMP DP RH WIND PRES REMARKS SAVANNAH ARPT MOSUNNY 53 10 18 SE5 30.39F 6HR MIN TEMP: 30; 6HR MAX TEMP: 54; HUNTER AAF SUNNY 53 21 29 VRB6 30.37F 6HR MIN TEMP: 34; 6HR MAX TEMP: 53; FORT STEWART SUNNY 55 17 22 NE5 30.36F 6HR MIN TEMP: 31; 6HR MAX TEMP: 55; STATESBORO SUNNY 52 20 27 E6 30.38F SYLVANIA CLEAR 51 20 29 CALM 30.39F CLAXTON FAIR 54 21 28 E3 30.37F ...CSRA...CENTRAL AND FAR SOUTHEAST GEORGIA... CITY SKY/WX TMP DP RH WIND PRES REMARKS THOMSON SUNNY 52 21 29 CALM 30.41F AUGUSTA-BUSH SUNNY 52 14 22 SE6 30.37F 6HR MIN TEMP: 21; 6HR MAX TEMP: 52; AUGUSTA-DANIEL SUNNY 51 12 21 SE6 30.37F SWAINSBORO FAIR 54 -22 4 S3 30.37F VIDALIA SUNNY 54 19 26 SE6 30.37F EASTMAN FAIR 56 22 26 E5 30.39F HAZLEHURST FAIR 55 21 26 S5 30.35F ALMA SUNNY 55 16 21 VRB6 30.36F 6HR MIN TEMP: 33; 6HR MAX TEMP: 55; WAYCROSS SUNNY 60 28 29 E8 30.36F JESUP FAIR 59 27 29 CALM 30.36F BAXLEY FAIR 55 18 22 SE5 30.36F BRUNSWICK SUNNY 55 28 35 NE8 30.38F SAINT SIMONS SUNNY 53 32 44 E13 30.38F 6HR MIN TEMP: 38; 6HR MAX TEMP: 54; $$ SCZ027-028-034-036>038-045-046-048>050-GAZ119-141-311900- ...LAKE AND SUPPLEMENTAL COASTAL OBSERVATIONS... STATION/POSITION TIME TEMP WIND PRES WAVE SWELL AIR SEA DIR/SP/G HT/PER HT/PER/DIR (UTC) (F) (DEG/KT/KT) (MB) (FT/S) (FT/S/D) UPR LAKE MARION NOT AVBL WINYAH BAY NOT AVBL LAKE MURRAY 1700 43 200/ 4/ 5 1028.1F ACE BASIN NERRS 1645 48 N/A FORT PULASKI 1700 45 52 60/ 10/ 12 1030.4S SAPELO ISLAND 1700 53 60/ 10 1029.0F $$ ANZ835-935-AMZ111-154-330-350-352-354-370-450-454-472-311900- ...C-MAN AND BUOY OBSERVATIONS... STATION/POSITION TIME TEMP WIND PRES WAVE SWELL AIR SEA DIR/SP/G HT/PER HT/PER/DIR (UTC) (F) (DEG/KT/KT) (MB) (FT/S) (FT/S/D) BUOY 41004 1750 46 67 20/ 12/ 16 1028.2F 5/ 7 3/ 7 BUOY 41008 1750 49 54 50/ 12/ 14 1028.8F 5/ 6 3/ 60/ 6 FOLLY BEACH CMAN 1700 44 70/ 7/ 8 1029.8F CAPERS NEARSHORE 1700 44 80/ 10/ 12 N/A FRIPP NEARSHORE 1700 45 70/ 14/ 16 1028.3F STATION/POSITION TIME TEMP WIND PRES WAVE SWELL AIR SEA DIR/SP/G HT/PER HT/PER/DIR (UTC) (F) (DEG/KT/KT) (MB) (FT/S) (FT/S/D) 5E ST. MARYS GA 1721 56 N/A 4/ 6 FRYING PAN BUOY 1750 40 62 10/ 14/ 17 1028.9F 5/10 3/ 70/10 BUOY 41025 1750 35 59 340/ 21/ 27 1025.9F 7/ 8 3/ 40/10 CAPE LOOKOUT NC 1700 37 340/ 12/ 14 1027.6F BUOY 41002 1750 54 69 340/ 19/ 25 1024.5F 12/ 9 BUOY 41010 1720 62 73 20/ 16/ 19 1025.4F ST AUGUSTINE FL 1800 57 360/ 15/ 16 1027.6F $$

USA.gov is the U.S. government's official web portal to all federal, state and local government web resources and services.